User: anonymous
Location: Mentone
(34.5413°N, 85.5351°W)
Time: 00:51:46
(UTC-05:00)
Language:

Uosat F - Orbit

View from above orbital plane
View from above orbital plane
View from above satellite
View from above satellite

Ground track
Ground track

The orbit data is extracted from the following two-line orbital elements,

1 21575U 91050B   14109.51263075  .00000552  00000-0  18840-3 0  9917
2 21575 098.6934 084.7872 0008374 133.0077 345.0279 14.40353577195037
Epoch (UTC): 19 April 2014 12:18:11
Eccentricity: 0.0008374
inclination: 98.6934°
perigee height: 751 km
apogee height: 763 km
right ascension of ascending node: 84.7872°
argument of perigee: 133.0077°
revolutions per day: 14.40353577
mean anomaly at epoch: 345.0279°
orbit number at epoch: 19503

The dashed part of the orbit path shows where the satellite is in the earth's shadow,  

DLR